Hourly Data Report for October 24, 2014

All times are specified in Local Standard Time (LST). Add 1 hour to adjust for Daylight Saving Time where and when it is observed.

QIKIQTARJUAQ A
NUNAVUT

67°32'48.000" N
64°01'54.000" W
5.50 m
2400577
YVM

Related Data

No related data is available for this station

Download Data

Hourly Data (October 2014)
Hourly Data Report for October 24, 2014
Temp Definition
°C
Dew Point Temp Definition
°C
Rel Hum Definition
%
Wind Dir Definition
10's deg

Wind Spd Definition
km/h
Visibility Definition
km
Stn Press Definition
kPa
Hmdx Definition


Wind Chill Definition


Weather Definition


TIME
00:00 Legend Double Dagger -8.2 -18.1 45 31 26 16.1 100.28   -17 LegendNANA
01:00 Legend Double Dagger -7.2 -16.3 49 30 37 16.1 100.18   -17 LegendNANA
02:00 Legend Double Dagger -7.2 -16.4 48 31 34 16.1 100.25   -16 LegendNANA
03:00 Legend Double Dagger -6.7 -11.9 67 32 30 16.1 100.25   -15 LegendNANA
04:00 Legend Double Dagger -5.5 -9.3 75 32 48 16.1 100.24   -15 Snow
05:00 Legend Double Dagger -5.0 -9.1 73 32 54 16.1 100.36   -15 Snow
06:00 Legend Double Dagger -4.7 -8.7 74 33 45 16.1 100.55   -14 Snow
07:00 Legend Double Dagger -4.1 -8.3 73 31 45 16.1 100.63   -13 Snow
08:00 Legend Double Dagger -4.0 -8.3 72 32 52 16.1 100.70   -14 Snow
09:00 Legend Double Dagger -4.0 -7.8 75 31 43 16.1 100.79   -13 Snow
10:00 Legend Double Dagger -3.6 -8.3 70 32 46 16.1 100.91   -13 LegendNANA
11:00 Legend Double Dagger -3.2 -7.4 73 33 41 16.1 101.07   -12 Snow
12:00 Legend Double Dagger -3.3 -8.3 69 31 34 16.1 101.16   -11 LegendNANA
13:00 Legend Double Dagger -3.3 -8.6 67 30 34 16.1 101.23   -11 LegendNANA
14:00 Legend Double Dagger -3.5 -8.1 70 33 24 16.1 101.28   -10 LegendNANA
15:00 Legend Double Dagger -3.9 -8.5 71 35 17 16.1 101.33   -10 LegendNANA
16:00 Legend Double Dagger -5.2 -10.3 68 LegendMM 8 16.1 101.37   -9 LegendNANA
17:00 Legend Double Dagger -7.2 -11.3 73 16 11 16.1 101.36   -12 LegendNANA
18:00 Legend Double Dagger -7.6 -11.2 76 14 13 16.1 101.36   -13 LegendNANA
19:00 Legend Double Dagger -7.4 -10.4 79   0 16.1 101.37     LegendNANA
20:00 Legend Double Dagger -4.7 -11.1 61 1 30 16.1 101.41   -13 LegendNANA
21:00 Legend Double Dagger -5.3 -11.1 64 1 37 16.1 101.42   -14 LegendNANA
22:00 Legend Double Dagger -5.7 -11.1 66 36 39 16.1 101.45   -15 LegendNANA
23:00 Legend Double Dagger -6.6 -11.9 66 34 28 16.1 101.48   -15 LegendNANA

Notes on Data Quality.

Legend

  • E = Estimated
  • M = Missing
  • NA = Not Available
  • ‡ = Partner data that is not subject to review by the National Climate Archives
Date modified: